GW2742 Weather Reports


time (UTC)temp
C
wind
direction
speed
KPH
gust
KPH
rain 1hr
cm
rain 24hr
cm
rain mn
cm
humidity
%
barometer
mb
20260509205522 18 28 11.3 24.1 0.00 0.15 0.13 43 1017.3
20260509205022 18 356 9.7 24.1 0.00 0.15 0.13 35 1017.3
20260509204536 18 343 9.7 27.4 0.00 0.15 0.13 37 1017.2
20260509204023 18 342 12.9 27.4 0.00 0.15 0.13 35 1017.1
20260509203525 18 278 8.0 19.3 0.00 0.15 0.13 34 1017.1
20260509203041 18 342 6.4 24.1 0.00 0.15 0.13 39 1017.0
20260509202525 18 289 9.7 24.1 0.00 0.15 0.13 38 1017.1
20260509202023 18 47 11.3 19.3 0.00 0.15 0.13 35 1017.0
20260509201541 18 38 9.7 20.9 0.00 0.15 0.13 35 1017.0
20260509201027 18 318 6.4 20.9 0.00 0.15 0.13 36 1017.0
20260509200525 18 347 11.3 22.5 0.00 0.15 0.13 35 1017.0
20260509200042 18 319 9.7 22.5 0.00 0.15 0.13 35 1017.0
20260509195523 18 321 11.3 27.4 0.00 0.15 0.13 38 1017.0
20260509195026 17 6 12.9 27.4 0.00 0.15 0.13 35 1016.9
20260509194543 17 359 11.3 25.7 0.00 0.15 0.13 38 1016.8
20260509194023 17 26 14.5 25.7 0.00 0.15 0.13 40 1016.8
20260509193526 17 334 12.9 25.7 0.00 0.15 0.13 36 1016.6
20260509193044 18 24 12.9 25.7 0.00 0.15 0.13 36 1016.5
20260509192524 18 359 12.9 25.7 0.00 0.15 0.13 35 1016.4
20260509192036 18 8 12.9 24.1 0.00 0.15 0.13 33 1016.5
20260509191543 18 311 6.4 24.1 0.00 0.15 0.13 34 1016.4
20260509191028 18 331 9.7 25.7 0.00 0.15 0.13 32 1016.4
20260509190530 17 293 11.3 25.7 0.00 0.15 0.13 31 1016.4
20260509190047 17 305 8.0 24.1 0.00 0.15 0.13 35 1016.4
20260509185525 17 280 11.3 25.7 0.00 0.15 0.13 36 1016.6
20260509185023 17 360 11.3 27.4 0.00 0.15 0.13 37 1016.7
20260509184540 17 357 11.3 27.4 0.00 0.15 0.13 36 1016.6
20260509184022 17 46 9.7 19.3 0.00 0.15 0.13 35 1016.6
20260509183524 17 328 8.0 17.7 0.00 0.15 0.13 35 1016.7
20260509183041 17 359 8.0 27.4 0.00 0.15 0.13 34 1016.7
20260509182523 17 345 9.7 27.4 0.00 0.15 0.13 38 1016.7
20260509182022 17 359 8.0 20.9 0.00 0.15 0.13 37 1016.7
20260509181536 17 321 6.4 20.9 0.00 0.15 0.13 38 1016.8
20260509181026 17 2 8.0 19.3 0.00 0.15 0.13 43 1016.7
20260509180524 16 358 6.4 19.3 0.00 0.15 0.13 42 1016.8
20260509180037 16 328 9.7 20.9 0.00 0.15 0.13 46 1016.8
20260509175522 16 324 8.0 20.9 0.00 0.15 0.13 49 1017.0
20260509175027 15 15 8.0 17.7 0.00 0.15 0.13 49 1017.0
20260509174537 15 338 6.4 17.7 0.00 0.15 0.13 48 1017.1
20260509174023 15 332 6.4 17.7 0.00 0.15 0.13 48 1017.1
20260509173523 15 337 9.7 16.1 0.00 0.15 0.13 49 1017.1
20260509173051 15 318 6.4 16.1 0.00 0.15 0.13 47 1017.0
20260509172523 15 323 3.2 17.7 0.00 0.15 0.13 48 1017.1
20260509172026 15 322 8.0 17.7 0.00 0.15 0.13 48 1017.0
20260509171546 15 349 9.7 17.7 0.00 0.15 0.13 48 1017.1
20260509171023 15 338 8.0 20.9 0.00 0.15 0.13 47 1017.1
20260509170523 15 345 9.7 22.5 0.00 0.15 0.13 47 1017.0
20260509170042 15 1 11.3 22.5 0.00 0.15 0.13 43 1017.0
20260509165526 15 328 9.7 19.3 0.00 0.15 0.13 44 1017.0
20260509165023 15 359 11.3 22.5 0.00 0.15 0.13 44 1017.0
20260509164546 15 328 11.3 22.5 0.00 0.15 0.13 45 1016.9
20260509164028 16 348 9.7 20.9 0.00 0.15 0.13 46 1016.7
20260509163524 16 339 8.0 24.1 0.00 0.15 0.13 50 1016.7
20260509163049 15 1 12.9 24.1 0.00 0.15 0.13 50 1016.9
20260509162524 15 297 9.7 22.5 0.00 0.15 0.13 50 1016.6
20260509162024 15 34 9.7 22.5 0.00 0.15 0.13 48 1016.6
20260509161537 15 326 8.0 22.5 0.00 0.15 0.13 54 1016.5
20260509161023 15 342 11.3 20.9 0.00 0.15 0.13 55 1016.4
20260509160523 14 307 4.8 12.9 0.00 0.15 0.13 60 1016.3
20260509160037 13 347 3.2 11.3 0.00 0.15 0.13 65 1016.4
20260509155522 12 334 1.6 6.4 0.00 0.15 0.13 68 1016.4
20260509155026 12 342 1.6 4.8 0.00 0.15 0.13 72 1016.4
20260509154537 12 0 0.0 8.0 0.00 0.15 0.13 71 1016.4
20260509154026 12 336 1.6 8.0 0.00 0.15 0.13 72 1016.6
20260509153528 12 347 3.2 6.4 0.00 0.15 0.13 71 1016.8
20260509153038 12 342 0.0 6.4 0.00 0.15 0.13 70 1016.9
20260509152526 12 211 1.6 6.4 0.00 0.15 0.13 69 1017.0
20260509152026 12 247 1.6 4.8 0.00 0.15 0.13 70 1017.0
20260509151537 12 286 1.6 14.5 0.00 0.15 0.13 70 1016.9
20260509151026 12 329 3.2 14.5 0.00 0.15 0.13 67 1016.7
20260509150528 13 350 6.4 19.3 0.00 0.15 0.13 69 1016.4
20260509150037 13 311 8.0 19.3 0.00 0.15 0.13 67 1016.4
20260509145529 12 343 9.7 19.3 0.00 0.15 0.13 67 1016.3
20260509145027 12 350 8.0 17.7 0.00 0.15 0.13 68 1016.2
20260509144544 12 311 6.4 19.3 0.00 0.15 0.13 69 1016.1
20260509144026 12 333 8.0 19.3 0.00 0.15 0.13 69 1016.1
20260509143526 13 341 8.0 19.3 0.00 0.15 0.13 69 1016.0
20260509143037 13 337 6.4 19.3 0.00 0.15 0.13 69 1015.9
20260509142525 12 281 8.0 22.5 0.00 0.15 0.13 72 1015.9
20260509142027 12 342 6.4 22.5 0.00 0.15 0.13 72 1016.0
20260509141544 12 304 8.0 22.5 0.00 0.15 0.13 71 1015.8
20260509141027 12 327 8.0 17.7 0.00 0.15 0.13 72 1015.9
20260509140526 11 323 8.0 22.5 0.00 0.15 0.13 72 1015.8
20260509140042 11 298 8.0 22.5 0.00 0.15 0.13 73 1015.8
20260509135526 11 335 8.0 22.5 0.00 0.15 0.13 73 1015.8
20260509135027 11 359 8.0 16.1 0.00 0.15 0.13 75 1015.8
20260509134550 11 344 8.0 14.5 0.00 0.15 0.13 75 1015.7
20260509134031 11 266 6.4 14.5 0.00 0.15 0.13 76 1015.7
20260509133526 10 326 4.8 9.7 0.00 0.15 0.13 79 1015.5
20260509133038 10 334 3.2 9.7 0.00 0.15 0.13 81 1015.5
20260509132526 10 305 1.6 6.4 0.00 0.15 0.13 86 1015.5
20260509132026 10 0 0.0 4.8 0.00 0.15 0.13 88 1015.6
20260509131555 9 0 0.0 3.2 0.00 0.15 0.13 88 1015.5
20260509131026 9 0 0.0 3.2 0.00 0.15 0.13 88 1015.5
20260509130531 9 246 0.0 3.2 0.00 0.15 0.13 89 1015.4
20260509130048 9 0 0.0 3.2 0.00 0.15 0.13 88 1015.4
20260509125527 9 246 0.0 3.2 0.00 0.18 0.13 88 1015.2
20260509125026 9 0 0.0 3.2 0.00 0.18 0.13 88 1015.1
20260509124543 9 0 0.0 3.2 0.00 0.18 0.13 88 1015.3
20260509124026 9 0 0.0 4.8 0.00 0.18 0.13 88 1015.2
20260509123526 9 0 0.0 4.8 0.00 0.18 0.13 88 1015.2
20260509123048 9 259 1.6 4.8 0.00 0.18 0.13 88 1015.1
20260509122526 8 244 1.6 4.8 0.00 0.18 0.13 89 1015.0
20260509122024 8 212 1.6 4.8 0.00 0.18 0.13 89 1015.0
20260509121538 8 233 1.6 4.8 0.00 0.18 0.13 89 1014.9
20260509121026 8 0 0.0 3.2 0.00 0.18 0.13 89 1014.9
20260509120528 8 0 0.0 4.8 0.00 0.18 0.13 88 1014.6
20260509120038 9 221 1.6 4.8 0.03 0.18 0.13 88 1014.6
20260509115526 9 221 1.6 4.8 0.03 0.18 0.13 88 1014.6
20260509115026 9 217 0.0 3.2 0.03 0.18 0.13 87 1014.5
20260509114537 9 0 0.0 1.6 0.03 0.18 0.13 87 1014.4
20260509114026 9 0 0.0 3.2 0.03 0.18 0.13 87 1014.4
20260509113531 9 0 0.0 3.2 0.05 0.18 0.13 87 1014.5
20260509113046 9 179 0.0 3.2 0.05 0.18 0.13 86 1014.4
20260509112528 10 179 1.6 3.2 0.08 0.18 0.13 86 1014.3
20260509112027 10 179 1.6 3.2 0.08 0.18 0.13 85 1014.3
20260509111539 10 179 1.6 4.8 0.10 0.18 0.13 84 1014.4
20260509111026 10 0 1.6 4.8 0.13 0.18 0.13 84 1014.5
20260509110528 10 186 1.6 6.4 0.13 0.18 0.13 84 1014.3
20260509110042 10 91 0.0 6.4 0.10 0.15 0.10 84 1014.4
20260509105525 10 103 4.8 6.4 0.10 0.15 0.10 84 1014.4
20260509105029 10 99 3.2 6.4 0.10 0.15 0.10 85 1014.5
20260509104548 10 0 0.0 6.4 0.10 0.15 0.10 83 1014.8
20260509104025 10 0 0.0 6.4 0.10 0.15 0.10 82 1014.8
20260509103526 10 88 3.2 6.4 0.08 0.13 0.08 81 1014.6
20260509103037 11 46 1.6 4.8 0.08 0.13 0.08 77 1014.8
20260509102530 11 0 0.0 6.4 0.05 0.10 0.05 78 1014.8
20260509102027 11 0 1.6 11.3 0.05 0.10 0.05 76 1014.5
20260509101537 11 98 3.2 11.3 0.03 0.08 0.03 71 1014.2
20260509101026 12 338 3.2 11.3 0.00 0.05 0.00 75 1014.6
20260509100526 12 296 4.8 9.7 0.00 0.05 0.00 70 1014.4
20260509100040 12 309 3.2 9.7 0.00 0.05 0.00 68 1014.2
20260509095527 12 263 4.8 9.7 0.00 0.05 0.00 69 1013.8
20260509095026 12 277 3.2 6.4 0.00 0.05 0.00 70 1013.5
20260509094538 12 0 1.6 8.0 0.00 0.05 0.00 73 1013.3
20260509094026 11 240 3.2 8.0 0.00 0.05 0.00 75 1013.1
20260509093526 11 0 1.6 6.4 0.00 0.05 0.00 78 1012.9
20260509093039 11 268 0.0 1.6 0.00 0.05 0.00 81 1012.8
20260509092526 11 0 0.0 3.2 0.00 0.05 0.00 81 1012.7
20260509092024 11 0 0.0 3.2 0.00 0.05 0.00 81 1012.6
20260509091537 11 131 0.0 3.2 0.00 0.05 0.00 81 1012.6
20260509091026 11 131 0.0 0.0 0.00 0.05 0.00 81 1012.7
20260509090526 11 0 0.0 1.6 0.00 0.05 0.00 82 1012.8
20260509090049 11 0 0.0 3.2 0.00 0.05 0.00 81 1012.7
20260509085526 11 131 0.0 4.8 0.00 0.05 0.00 80 1012.8
20260509085028 11 131 1.6 4.8 0.00 0.05 0.00 80 1012.7
20260509084541 11 246 1.6 3.2 0.00 0.05 0.00 80 1012.6
20260509084026 11 0 0.0 1.6 0.00 0.05 0.00 79 1012.7
20260509083526 11 0 0.0 4.8 0.00 0.05 0.00 79 1012.5
20260509083044 11 0 0.0 4.8 0.00 0.05 0.00 79 1012.4
20260509082525 11 0 1.6 8.0 0.00 0.05 0.00 78 1012.4
20260509082026 11 259 3.2 8.0 0.00 0.05 0.00 78 1012.5
20260509081543 11 225 3.2 8.0 0.00 0.05 0.00 78 1012.4
20260509081028 11 188 1.6 3.2 0.00 0.05 0.00 78 1012.5
20260509080526 11 184 0.0 4.8 0.00 0.05 0.00 78 1012.5
20260509080037 11 0 0.0 4.8 0.00 0.05 0.00 78 1012.3
20260509075526 11 185 3.2 6.4 0.00 0.05 0.00 76 1012.3
20260509075026 12 184 3.2 6.4 0.00 0.05 0.00 75 1012.3
20260509074536 12 160 1.6 4.8 0.00 0.05 0.00 75 1012.2
20260509074030 12 0 0.0 3.2 0.00 0.05 0.00 75 1012.4
20260509073526 12 278 0.0 3.2 0.00 0.05 0.00 76 1012.4
20260509073039 12 0 0.0 4.8 0.00 0.05 0.00 76 1012.3
20260509072537 12 0 0.0 4.8 0.00 0.05 0.00 75 1012.4
20260509072025 12 278 0.0 4.8 0.00 0.05 0.00 74 1011.7
20260509071540 12 0 0.0 4.8 0.00 0.05 0.00 72 1011.5
20260509071026 12 0 1.6 4.8 0.00 0.05 0.00 72 1011.5
20260509070527 13 0 0.0 3.2 0.00 0.05 0.00 71 1011.5
20260509070037 13 305 1.6 3.2 0.00 0.05 0.00 71 1011.6
20260509065526 13 306 0.0 1.6 0.00 0.08 0.00 70 1011.8
20260509065028 13 306 0.0 4.8 0.00 0.08 0.00 70 1011.8
20260509064537 13 0 0.0 4.8 0.00 0.08 0.00 69 1011.8
20260509064027 13 305 1.6 4.8 0.00 0.08 0.00 68 1011.8
20260509063526 13 58 1.6 4.8 0.00 0.08 0.00 67 1011.6
20260509063036 13 168 0.0 3.2 0.00 0.08 0.00 67 1011.5
20260509062529 13 0 0.0 3.2 0.00 0.08 0.00 67 1011.3
20260509062027 13 0 0.0 3.2 0.00 0.08 0.00 67 1011.4
20260509061542 13 0 0.0 4.8 0.00 0.08 0.00 66 1011.4
20260509061026 14 0 0.0 6.4 0.00 0.08 0.00 65 1011.4
20260509060529 14 67 0.0 6.4 0.00 0.08 0.00 65 1011.3
20260509060038 14 62 3.2 6.4 0.00 0.08 0.00 64 1011.4
20260509055527 15 269 1.6 6.4 0.00 0.08 0.08 62 1011.4
20260509055025 15 263 0.0 9.7 0.00 0.08 0.08 61 1011.3
20260509054548 15 245 3.2 9.7 0.00 0.08 0.08 59 1011.4
20260509054027 16 276 4.8 9.7 0.00 0.08 0.08 57 1011.3
20260509053530 16 226 3.2 8.0 0.00 0.08 0.08 50 1011.3
20260509053129 16 326 1.6 8.0 0.00 0.08 0.08 50 1011.4
20260509052526 17 348 3.2 16.1 0.00 0.08 0.08 45 1011.3
20260509052026 16 317 4.8 19.3 0.00 0.08 0.08 46 1011.3
20260509051545 16 27 9.7 19.3 0.00 0.08 0.08 48 1011.4
20260509051024 14 325 1.6 8.0 0.00 0.08 0.08 65 1011.5
20260509050526 14 277 3.2 8.0 0.00 0.08 0.08 64 1011.4
20260509050047 15 205 3.2 12.9 0.00 0.08 0.08 64 1011.2
20260509045526 15 236 4.8 12.9 0.00 0.08 0.08 62 1011.1
20260509045026 15 165 6.4 12.9 0.00 0.08 0.08 63 1011.0
20260509044539 15 163 6.4 12.9 0.00 0.08 0.08 62 1011.0
20260509044028 15 182 4.8 12.9 0.00 0.08 0.08 61 1011.1
20260509043526 15 175 3.2 9.7 0.00 0.08 0.08 62 1011.0
20260509043037 15 174 4.8 9.7 0.00 0.08 0.08 60 1011.0
20260509042529 15 203 3.2 11.3 0.00 0.08 0.08 59 1011.1
20260509042027 15 277 1.6 14.5 0.00 0.08 0.08 58 1011.1
20260509041536 15 159 6.4 14.5 0.00 0.08 0.08 57 1011.1
20260509041027 16 214 4.8 11.3 0.00 0.08 0.08 57 1011.1
20260509040526 16 0 0.0 11.3 0.00 0.08 0.08 55 1011.1
20260509040037 16 268 1.6 11.3 0.00 0.08 0.08 55 1011.1
20260509035527 16 257 6.4 11.3 0.00 0.10 0.08 55 1011.0
20260509035029 15 221 3.2 8.0 0.00 0.10 0.08 58 1010.9
20260509034536 15 0 1.6 11.3 0.00 0.10 0.08 59 1010.9
20260509034027 15 190 3.2 11.3 0.00 0.10 0.08 60 1011.0
20260509033526 15 263 4.8 11.3 0.00 0.10 0.08 60 1011.1
20260509033039 15 219 4.8 11.3 0.00 0.10 0.08 62 1011.2
20260509032527 15 217 4.8 11.3 0.00 0.10 0.08 60 1011.2
20260509032027 15 226 3.2 11.3 0.00 0.10 0.08 59 1011.1
20260509031538 15 218 4.8 11.3 0.00 0.10 0.08 60 1010.7
20260509031026 15 185 3.2 6.4 0.00 0.10 0.08 59 1010.6
20260509030525 15 194 3.2 9.7 0.00 0.10 0.08 59 1010.4
20260509030039 15 190 4.8 9.7 0.03 0.10 0.08 57 1010.3
20260509025526 15 200 3.2 6.4 0.03 0.10 0.08 57 1010.1
20260509025026 15 212 0.0 6.4 0.03 0.10 0.08 61 1010.1
20260509024542 15 0 0.0 12.9 0.03 0.10 0.08 58 1010.0
20260509024025 15 202 3.2 12.9 0.03 0.10 0.08 60 1010.0
20260509023526 15 176 6.4 22.5 0.03 0.10 0.08 59 1009.9
20260509023047 16 195 6.4 29.0 0.03 0.10 0.08 59 1010.0
20260509022530 16 198 12.9 29.0 0.03 0.10 0.08 58 1010.1
20260509022030 16 214 9.7 22.5 0.03 0.10 0.08 55 1010.1
20260509021539 17 239 1.6 8.0 0.03 0.10 0.08 62 1010.3
20260509021026 18 286 3.2 8.0 0.03 0.10 0.08 53 1010.1
20260509020526 18 275 0.0 3.2 0.00 0.08 0.05 50 1010.0
20260509020044 18 0 0.0 0.0 0.00 0.08 0.05 45 1009.8
20260509015530 18 0 0.0 0.0 0.00 0.10 0.05 45 1009.8
20260509015027 19 0 0.0 0.0 0.00 0.10 0.05 45 1009.7
20260509014539 19 0 0.0 0.0 0.00 0.10 0.05 44 1009.7
20260509014024 19 0 0.0 3.2 0.00 0.10 0.05 43 1009.6
20260509013528 19 0 0.0 3.2 0.00 0.10 0.05 43 1009.7
20260509013040 20 50 1.6 4.8 0.00 0.10 0.05 42 1009.7
20260509012524 20 30 0.0 4.8 0.00 0.10 0.05 41 1009.6
20260509012026 20 47 1.6 4.8 0.00 0.10 0.05 42 1009.7
20260509011540 20 44 1.6 4.8 0.00 0.10 0.05 42 1009.7
20260509011027 20 0 1.6 6.4 0.00 0.10 0.05 41 1009.6
20260509010525 20 0 1.6 6.4 0.00 0.10 0.05 39 1009.7
20260509010038 20 34 3.2 8.0 0.00 0.10 0.05 37 1009.5
20260509005526 20 20 3.2 8.0 0.00 0.23 0.05 38 1009.6
20260509005024 20 37 3.2 11.3 0.00 0.23 0.05 37 1009.6
20260509004541 20 46 4.8 11.3 0.00 0.23 0.05 38 1009.5
20260509004025 20 51 3.2 8.0 0.00 0.23 0.05 38 1009.6
20260509003525 20 27 3.2 6.4 0.00 0.23 0.05 36 1009.6
20260509003055 20 52 0.0 6.4 0.00 0.23 0.05 36 1009.7
20260509002525 20 0 0.0 8.0 0.00 0.23 0.05 35 1009.7
20260509002024 21 63 3.2 9.7 0.00 0.23 0.05 35 1009.7
20260509001542 21 43 4.8 14.5 0.00 0.23 0.05 34 1009.7
20260509001025 21 60 4.8 14.5 0.00 0.23 0.05 35 1009.7
20260509000528 21 86 8.0 14.5 0.00 0.23 0.05 35 1009.6
20260509000044 21 0 1.6 11.3 0.00 0.23 0.05 35 1009.7
20260508235525 21 39 3.2 11.3 0.00 0.23 0.05 37 1009.7
20260508235025 21 340 3.2 14.5 0.00 0.23 0.05 37 1009.7
20260508234541 21 23 8.0 16.1 0.00 0.23 0.05 36 1009.8
20260508234025 21 57 6.4 16.1 0.00 0.23 0.05 35 1009.8
20260508233525 21 82 9.7 16.1 0.00 0.23 0.05 34 1009.7
20260508233037 22 26 4.8 11.3 0.00 0.23 0.05 35 1009.8
20260508232524 22 31 3.2 11.3 0.00 0.23 0.05 33 1010.0
20260508232027 22 198 1.6 12.9 0.00 0.23 0.05 37 1010.0
20260508231548 22 210 3.2 12.9 0.00 0.23 0.05 35 1010.0
20260508231024 22 219 3.2 6.4 0.00 0.23 0.05 35 1010.0
20260508230523 22 217 1.6 8.0 0.00 0.23 0.05 35 1010.2
20260508230042 22 117 1.6 8.0 0.00 0.23 0.05 36 1010.3
20260508225528 22 204 1.6 8.0 0.00 0.23 0.05 34 1010.4
20260508225027 21 323 1.6 8.0 0.00 0.23 0.05 37 1010.4
20260508224544 21 26 0.0 9.7 0.00 0.23 0.05 35 1010.6
20260508224023 21 154 3.2 11.3 0.00 0.23 0.05 36 1010.6
20260508223526 21 190 3.2 14.5 0.00 0.23 0.05 37 1010.8
20260508223038 21 180 4.8 19.3 0.00 0.23 0.05 38 1010.8
20260508222523 21 137 6.4 19.3 0.00 0.23 0.05 36 1010.9
20260508222023 21 208 3.2 19.3 0.00 0.23 0.05 37 1011.0
20260508221537 21 330 6.4 11.3 0.00 0.23 0.05 38 1011.0
20260508221025 21 1 3.2 11.3 0.00 0.23 0.05 36 1011.1
20260508220526 21 108 3.2 11.3 0.00 0.23 0.05 38 1011.2
20260508220037 21 37 1.6 6.4 0.00 0.23 0.05 40 1011.2
20260508215525 20 212 1.6 11.3 0.00 0.23 0.05 37 1011.3
20260508215027 20 162 3.2 11.3 0.00 0.23 0.05 37 1011.4
20260508214542 20 103 1.6 14.5 0.00 0.23 0.05 38 1011.5
20260508214023 20 151 4.8 16.1 0.00 0.23 0.05 37 1011.5
20260508213523 20 131 8.0 16.1 0.00 0.23 0.05 39 1011.6
20260508213042 20 125 6.4 14.5 0.00 0.23 0.05 39 1011.6
20260508212526 21 115 4.8 14.5 0.00 0.23 0.05 37 1011.6
20260508212023 20 247 3.2 16.1 0.00 0.23 0.05 40 1011.8
20260508211543 20 219 6.4 16.1 0.00 0.23 0.05 39 1011.8
20260508211023 20 179 8.0 14.5 0.00 0.23 0.05 38 1011.9
20260508210524 20 109 1.6 9.7 0.00 0.23 0.05 40 1011.9
20260508210047 20 158 4.8 9.7 0.00 0.23 0.05 44 1012.0